Lid_Strength_Index
10 14 15 12 12 11 11 12 13 11 9 10 11 12 10 10 8 8 8 7 6 5 4 3 3 2 2 2 2 2 3 2 2 3 3 3 3 3 2 2 1 1 1 1
13 15 10 9 9 10 12 13 13 10 8 9 11 12 9 8 8 8 9 9 8 5 5 4 3 3 2 2 2 2 2 1 1 2 3 2 3 2 2 1 1 1 1 1
15 11 9 10 11 12 12 13 13 12 10 9 12 14 11 9 9 8 8 8 8 5 5 4 4 3 3 3 2 2 1 1 1 1 1 1 1 1 1 1 1 0 0 1
12 9 10 12 12 11 14 10 10 12 14 17 12 19 13 11 10 9 9 8 8 8 5 4 4 4 3 3 2 1 1 1 1 0 1 2 2 3 2 1 1 1 0 1
13 11 11 12 12 10 12 10 11 11 14 15 14 17 15 11 12 11 9 8 8 7 6 5 4 4 3 2 2 2 1 1 1 1 1 1 2 1 1 1 1 1 0 0
11 8 9 11 10 10 9 11 11 12 14 19 14 16 16 13 11 11 12 11 9 8 8 8 7 6 6 3 2 2 2 2 1 1 1 2 2 2 2 2 2 2 1 1
14 11 9 9 11 9 10 13 19 21 21 20 13 16 13 11 11 12 11 11 11 10 9 9 9 9 7 6 3 2 2 3 2 2 2 2 1 1 2 2 2 3 3 2
16 18 12 9 10 13 12 13 18 22 22 19 14 16 13 11 11 9 11 11 10 10 8 7 8 9 9 8 5 3 4 3 3 3 3 2 3 4 4 4 3 2 3 2
16 17 10 9 9 10 13 15 11 16 17 18 16 14 11 11 11 10 10 10 10 9 8 7 6 6 7 7 7 6 5 4 4 4 4 4 4 4 5 5 5 5 4 4
12 16 12 10 9 10 11 10 16 15 22 22 16 17 17 13 12 11 10 10 9 9 8 7 6 7 7 7 7 7 7 6 6 4 4 4 5 5 5 5 5 5 5 5
10 13 14 11 13 14 13 14 13 13 14 19 19 16 12 13 12 11 10 9 9 10 10 9 9 8 8 8 8 7 7 7 8 8 8 8 8 8 8 8 8 8 8 7
10 13 15 15 11 10 11 13 13 17 18 15 16 16 11 11 10 9 10 10 10 10 10 10 10 10 9 9 9 9 8 8 8 8 8 8 8 8 9 9 9 8 9 9
12 14 19 18 13 11 12 11 11 12 13 16 18 17 11 11 10 10 11 11 10 10 10 10 10 10 10 9 9 9 9 8 8 8 9 9 9 9 9 9 9 9 9 9
11 14 15 19 16 13 14 13 11 12 16 16 15 14 11 12 11 11 11 11 11 10 10 10 10 10 10 10 9 9 9 9 9 9 10 10 10 10 10 10 10 9 9 9
14 23 15 15 14 13 13 13 13 14 13 16 14 14 11 11 12 11 10 10 10 10 9 10 10 10 10 10 9 9 9 10 10 10 10 10 10 10 10 10 10 10 9 9
14 22 20 22 13 13 14 13 12 12 12 13 13 14 10 10 9 11 10 10 10 9 9 9 9 9 9 9 9 9 9 9 9 9 10 10 10 10 10 10 10 10 10 9
17 20 24 27 17 16 20 15 13 14 12 13 15 12 10 11 10 10 10 9 9 9 9 9 8 8 8 8 8 9 9 9 10 10 10 10 10 10 10 10 10 10 10 10
18 20 18 24 23 27 15 13 12 13 13 12 12 11 10 10 10 10 8 9 8 8 8 8 8 7 8 8 8 8 8 9 10 10 10 10 10 11 11 11 11 11 11 11
14 17 19 21 27 19 15 14 14 14 14 11 11 11 11 10 10 11 9 8 7 7 7 7 7 8 9 8 8 8 9 9 10 10 11 11 11 11 11 11 11 11 11 11
13 13 21 27 27 29 16 12 12 12 16 10 9 10 11 10 14 13 11 9 8 8 8 8 8 8 9 9 9 9 9 10 10 11 11 12 11 11 11 12 12 12 12 11
25 20 22 25 23 21 13 12 12 19 16 10 8 8 10 13 12 11 10 10 10 10 9 9 9 10 10 10 10 10 10 11 11 12 12 12 12 12 12 12 12 12 11 11
21 25 24 25 25 24 12 12 14 12 11 9 9 8 8 9 9 9 10 10 10 11 11 11 11 12 11 11 11 11 11 11 11 12 12 14 14 13 12 14 12 13 12 12
20 17 20 17 17 12 11 11 10 10 10 10 9 8 8 9 10 10 10 10 11 11 11 11 11 12 12 13 13 13 13 12 13 15 17 16 16 14 14 14 13 14 13 14
15 13 16 15 14 12 10 9 9 9 9 9 8 8 8 9 9 10 11 11 12 12 12 13 13 14 14 15 15 15 15 16 17 18 17 16 16 15 16 14 13 14 15 15
15 14 15 16 13 13 11 9 8 8 9 9 9 9 9 9 10 10 11 12 12 13 13 14 15 16 17 18 18 19 19 19 18 17 17 16 16 17 16 15 15 14 14 14
15 15 16 16 13 12 11 9 8 8 8 9 10 10 11 10 11 11 12 13 14 15 16 17 18 19 20 20 22 23 23 22 22 19 18 17 16 18 17 17 16 10 10 9